{"data":{"norad_id":66151,"intl_designator":"2025-240F","name":"STARLINK-35540","alt_names":[],"object_type":"PAYLOAD","status":"ACTIVE","operator":null,"country":"US","launch_date":"2025-10-25","launch_site_code":"AFWTR","launch_vehicle":null,"mission":null,"orbit_class":"UNKNOWN","rcs_meters":null,"size_class":null,"mass_kg":null,"dimensions":null,"purposes":["comms"],"wikipedia_slug":null,"has_3d_model":false,"image_url":null,"decayed_at":null,"tle_current":{"epoch":"2026-09-20T22:33:48.210048Z","epoch_age_seconds":62339,"freshness":"FRESH","line1":"1 66151U 25240F   26263.94014132  .00017685  00000+0  53340-3 0  9999","line2":"2 66151  53.1569 231.5342 0002009  90.5315 269.5918 15.34393627 51946","mean_motion":15.34393627,"eccentricity":0.0002009,"inclination_deg":53.1569,"raan_deg":231.5342,"arg_perigee_deg":90.5315,"mean_anomaly_deg":269.5918,"bstar":0.0005334,"rev_number":5194,"period_min":93.848147871641,"perigee_km":461.34785356202,"apogee_km":464.09651078141,"semimajor_km":6840.8591821717,"source":"CELESTRAK","updated_at":"2026-09-21T09:00:35.813174Z"}}}